| time (UTC) | temp F | wind direction | speed MPH | gust MPH | rain 1hr in | rain 24hr in | rain mn in | humidity % | barometer mb |
| 20260507083705 | 52 | 330 | 2.0 | 6.0 | 0.00 | 0.16 | 0.00 | 89 | 1013.4 |
| 20260507083205 | 51 | 321 | 2.0 | 6.0 | 0.00 | 0.17 | 0.00 | 88 | 1013.4 |
| 20260507082705 | 51 | 314 | 2.0 | 6.0 | 0.00 | 0.17 | 0.00 | 89 | 1013.4 |
| 20260507082205 | 51 | 295 | 3.0 | 6.0 | 0.00 | 0.17 | 0.00 | 90 | 1013.4 |
| 20260507081706 | 51 | 356 | 3.0 | 6.0 | 0.00 | 0.17 | 0.00 | 90 | 1013.4 |
| 20260507080705 | 50 | 309 | 3.0 | 6.0 | 0.00 | 0.17 | 0.00 | 90 | 1013.3 |
| 20260507075705 | 50 | 315 | 3.0 | 7.0 | 0.00 | 0.17 | 0.00 | 90 | 1013.2 |
| 20260507074705 | 50 | 317 | 2.0 | 6.0 | 0.00 | 0.17 | 0.00 | 91 | 1013.2 |
| 20260507074205 | 49 | 309 | 3.0 | 7.0 | 0.00 | 0.17 | 0.00 | 92 | 1013.2 |
| 20260507073705 | 49 | 289 | 3.0 | 7.0 | 0.00 | 0.17 | 0.00 | 92 | 1013.1 |
| 20260507073212 | 49 | 326 | 3.0 | 7.0 | 0.00 | 0.17 | 0.00 | 92 | 1013.0 |
| 20260507072705 | 49 | 311 | 3.0 | 6.0 | 0.00 | 0.17 | 0.00 | 92 | 1012.9 |
| 20260507072205 | 49 | 307 | 3.0 | 7.0 | 0.00 | 0.17 | 0.00 | 92 | 1012.9 |
| 20260507071705 | 49 | 321 | 3.0 | 7.0 | 0.00 | 0.17 | 0.00 | 93 | 1012.8 |
| 20260507071205 | 49 | 298 | 4.0 | 7.0 | 0.00 | 0.17 | 0.00 | 93 | 1012.8 |
| 20260507070706 | 49 | 335 | 4.0 | 6.0 | 0.00 | 0.17 | 0.00 | 93 | 1012.8 |
| 20260507070206 | 49 | 317 | 4.0 | 7.0 | 0.00 | 0.17 | 0.00 | 93 | 1012.8 |
| 20260507065705 | 49 | 334 | 4.0 | 7.0 | 0.00 | 0.17 | 0.00 | 93 | 1012.8 |
| 20260507065205 | 49 | 309 | 3.0 | 9.0 | 0.00 | 0.17 | 0.00 | 93 | 1012.7 |
| 20260507063705 | 48 | 318 | 3.0 | 6.0 | 0.00 | 0.17 | 0.00 | 94 | 1012.5 |
| 20260507063205 | 48 | 316 | 3.0 | 6.0 | 0.00 | 0.17 | 0.00 | 94 | 1012.5 |
| 20260507062706 | 48 | 333 | 3.0 | 6.0 | 0.00 | 0.17 | 0.00 | 94 | 1012.5 |
| 20260507062205 | 48 | 323 | 3.0 | 6.0 | 0.00 | 0.17 | 0.00 | 94 | 1012.4 |
| 20260507061705 | 48 | 319 | 2.0 | 6.0 | 0.00 | 0.17 | 0.00 | 94 | 1012.4 |
| 20260507061205 | 48 | 309 | 2.0 | 6.0 | 0.00 | 0.17 | 0.00 | 94 | 1012.4 |
| 20260507060705 | 48 | 316 | 2.0 | 6.0 | 0.00 | 0.17 | 0.00 | 94 | 1012.3 |
| 20260507060205 | 48 | 328 | 2.0 | 6.0 | 0.00 | 0.17 | 0.00 | 94 | 1012.3 |
| 20260507055705 | 48 | 313 | 2.0 | 6.0 | 0.00 | 0.17 | 0.00 | 94 | 1012.3 |
| 20260507055205 | 48 | 296 | 2.0 | 6.0 | 0.00 | 0.17 | 0.00 | 94 | 1012.2 |
| 20260507054705 | 47 | 319 | 3.0 | 6.0 | 0.00 | 0.17 | 0.00 | 94 | 1012.2 |
| 20260507054205 | 47 | 288 | 3.0 | 5.0 | 0.00 | 0.17 | 0.00 | 94 | 1012.2 |
| 20260507053704 | 47 | 323 | 2.0 | 5.0 | 0.00 | 0.17 | 0.00 | 95 | 1012.1 |
| 20260507053207 | 47 | 293 | 2.0 | 5.0 | 0.00 | 0.17 | 0.00 | 95 | 1012.1 |
| 20260507052706 | 47 | 316 | 1.0 | 3.0 | 0.00 | 0.17 | 0.00 | 95 | 1012.2 |
| 20260507030206 | 46 | 0.0 | 2.0 | 0.00 | 0.17 | 0.00 | 95 | 1010.9 | |
| 20260507025206 | 46 | 304 | 1.0 | 4.0 | 0.00 | 0.17 | 0.00 | 95 | 1010.9 |
| 20260507024706 | 47 | 301 | 1.0 | 4.0 | 0.00 | 0.18 | 0.00 | 95 | 1010.9 |
| 20260507023706 | 47 | 315 | 1.0 | 3.0 | 0.00 | 0.19 | 0.00 | 95 | 1010.9 |
| 20260507023205 | 47 | 302 | 1.0 | 3.0 | 0.00 | 0.20 | 0.00 | 95 | 1010.9 |
| 20260507021705 | 47 | 308 | 2.0 | 5.0 | 0.00 | 0.21 | 0.00 | 95 | 1010.8 |
| 20260507021206 | 47 | 316 | 1.0 | 4.0 | 0.00 | 0.21 | 0.00 | 96 | 1010.7 |
| 20260507020705 | 47 | 316 | 2.0 | 4.0 | 0.00 | 0.22 | 0.00 | 96 | 1010.7 |
| 20260507020206 | 47 | 311 | 2.0 | 5.0 | 0.00 | 0.23 | 0.00 | 96 | 1010.7 |
| 20260507015705 | 47 | 317 | 2.0 | 5.0 | 0.00 | 0.23 | 0.00 | 96 | 1010.7 |
| 20260507015205 | 47 | 310 | 2.0 | 4.0 | 0.00 | 0.24 | 0.00 | 96 | 1010.6 |
| 20260507014705 | 47 | 317 | 2.0 | 4.0 | 0.00 | 0.24 | 0.00 | 96 | 1010.6 |
| 20260507014205 | 47 | 305 | 1.0 | 4.0 | 0.00 | 0.24 | 0.00 | 96 | 1010.6 |
| 20260507013706 | 47 | 326 | 1.0 | 4.0 | 0.00 | 0.24 | 0.00 | 96 | 1010.5 |
| 20260507013206 | 47 | 316 | 1.0 | 3.0 | 0.00 | 0.24 | 0.00 | 96 | 1010.5 |
| 20260507012705 | 47 | 302 | 1.0 | 3.0 | 0.00 | 0.24 | 0.00 | 96 | 1010.5 |
| 20260507011705 | 47 | 302 | 1.0 | 4.0 | 0.00 | 0.24 | 0.00 | 96 | 1010.4 |
| 20260507011213 | 47 | 299 | 1.0 | 4.0 | 0.00 | 0.24 | 0.00 | 96 | 1010.4 |
| 20260507010705 | 47 | 310 | 1.0 | 4.0 | 0.00 | 0.24 | 0.00 | 96 | 1010.3 |
| 20260507010206 | 47 | 262 | 1.0 | 4.0 | 0.00 | 0.24 | 0.00 | 96 | 1010.4 |
| 20260507005705 | 47 | 319 | 1.0 | 5.0 | 0.00 | 0.25 | 0.00 | 96 | 1010.4 |
| 20260507005205 | 47 | 319 | 2.0 | 5.0 | 0.00 | 0.25 | 0.00 | 96 | 1010.3 |
| 20260507004705 | 47 | 303 | 2.0 | 5.0 | 0.00 | 0.25 | 0.00 | 97 | 1010.2 |
| 20260507004206 | 47 | 328 | 2.0 | 4.0 | 0.00 | 0.25 | 0.00 | 97 | 1010.3 |
| 20260507003705 | 47 | 333 | 1.0 | 4.0 | 0.00 | 0.25 | 0.00 | 97 | 1010.2 |
| 20260507003205 | 47 | 311 | 1.0 | 4.0 | 0.00 | 0.26 | 0.00 | 97 | 1010.2 |
| 20260507002705 | 47 | 302 | 2.0 | 4.0 | 0.00 | 0.26 | 0.00 | 97 | 1010.2 |
| 20260507002206 | 47 | 303 | 1.0 | 4.0 | 0.00 | 0.26 | 0.00 | 97 | 1010.2 |
| 20260507001705 | 47 | 318 | 1.0 | 4.0 | 0.00 | 0.26 | 0.00 | 97 | 1010.1 |
| 20260507001206 | 47 | 325 | 1.0 | 4.0 | 0.00 | 0.27 | 0.00 | 97 | 1010.2 |
| 20260507000705 | 47 | 316 | 1.0 | 4.0 | 0.00 | 0.27 | 0.00 | 97 | 1010.2 |
| 20260507000205 | 47 | 335 | 1.0 | 4.0 | 0.00 | 0.27 | 0.00 | 97 | 1010.2 |
| 20260506234706 | 47 | 323 | 1.0 | 4.0 | 0.00 | 0.28 | 0.00 | 97 | 1010.2 |
| 20260506234205 | 47 | 336 | 1.0 | 4.0 | 0.00 | 0.28 | 0.00 | 97 | 1010.2 |
| 20260506233705 | 47 | 332 | 1.0 | 4.0 | 0.00 | 0.28 | 0.00 | 97 | 1010.2 |
| 20260506233206 | 47 | 299 | 1.0 | 3.0 | 0.00 | 0.28 | 0.00 | 97 | 1010.1 |
| 20260506232707 | 47 | 325 | 1.0 | 5.0 | 0.00 | 0.28 | 0.00 | 97 | 1010.1 |
| 20260506232206 | 47 | 325 | 1.0 | 5.0 | 0.00 | 0.28 | 0.00 | 97 | 1010.1 |
| 20260506231705 | 47 | 356 | 1.0 | 5.0 | 0.00 | 0.28 | 0.00 | 97 | 1010.0 |
| 20260506230705 | 47 | 323 | 0.0 | 1.0 | 0.00 | 0.29 | 0.00 | 97 | 1010.1 |
| 20260506230205 | 47 | 90 | 0.0 | 1.0 | 0.00 | 0.29 | 0.00 | 97 | 1010.0 |
| 20260506225705 | 47 | 90 | 0.0 | 1.0 | 0.00 | 0.30 | 0.00 | 97 | 1010.0 |
| 20260506225209 | 47 | 90 | 0.0 | 3.0 | 0.00 | 0.30 | 0.00 | 97 | 1009.9 |
| 20260506224705 | 47 | 90 | 0.0 | 3.0 | 0.00 | 0.30 | 0.00 | 97 | 1009.9 |
| 20260506224205 | 47 | 90 | 0.0 | 3.0 | 0.00 | 0.31 | 0.00 | 97 | 1009.8 |
| 20260506223705 | 47 | 309 | 0.0 | 4.0 | 0.00 | 0.31 | 0.00 | 97 | 1009.8 |
| 20260506222710 | 47 | 337 | 0.0 | 4.0 | 0.00 | 0.31 | 0.00 | 97 | 1009.7 |
| 20260506222205 | 47 | 278 | 0.0 | 2.0 | 0.00 | 0.31 | 0.00 | 97 | 1009.7 |
| 20260506221705 | 47 | 301 | 0.0 | 3.0 | 0.00 | 0.31 | 0.00 | 97 | 1009.6 |
| 20260506220705 | 48 | 326 | 0.0 | 4.0 | 0.00 | 0.32 | 0.00 | 97 | 1009.4 |
| 20260506220209 | 48 | 334 | 0.0 | 4.0 | 0.00 | 0.32 | 0.32 | 97 | 1009.4 |
| 20260506215705 | 48 | 324 | 0.0 | 3.0 | 0.00 | 0.33 | 0.32 | 97 | 1009.3 |
| 20260506215207 | 48 | 324 | 1.0 | 3.0 | 0.00 | 0.33 | 0.32 | 97 | 1009.3 |
| 20260506214705 | 48 | 324 | 1.0 | 6.0 | 0.00 | 0.33 | 0.32 | 97 | 1009.3 |
| 20260506213705 | 48 | 329 | 2.0 | 6.0 | 0.00 | 0.34 | 0.32 | 97 | 1009.2 |
| 20260506213206 | 48 | 327 | 2.0 | 5.0 | 0.00 | 0.34 | 0.32 | 97 | 1009.1 |
| 20260506212709 | 48 | 322 | 2.0 | 4.0 | 0.00 | 0.34 | 0.32 | 97 | 1009.0 |
| 20260506211705 | 48 | 337 | 1.0 | 5.0 | 0.00 | 0.35 | 0.32 | 97 | 1009.0 |
| 20260506211205 | 48 | 315 | 1.0 | 6.0 | 0.00 | 0.35 | 0.32 | 97 | 1009.0 |
| 20260506210205 | 48 | 326 | 3.0 | 8.0 | 0.00 | 0.35 | 0.32 | 97 | 1009.0 |
| 20260506205706 | 48 | 350 | 3.0 | 8.0 | 0.00 | 0.35 | 0.32 | 97 | 1008.9 |
| 20260506205207 | 48 | 328 | 3.0 | 8.0 | 0.00 | 0.35 | 0.32 | 97 | 1009.0 |
| 20260506204706 | 48 | 337 | 2.0 | 5.0 | 0.00 | 0.35 | 0.32 | 97 | 1009.0 |
| 20260506204205 | 48 | 319 | 3.0 | 5.0 | 0.00 | 0.36 | 0.32 | 97 | 1009.0 |
| 20260506203206 | 48 | 332 | 2.0 | 5.0 | 0.00 | 0.36 | 0.32 | 97 | 1009.0 |
| 20260506202706 | 48 | 323 | 2.0 | 7.0 | 0.00 | 0.36 | 0.32 | 97 | 1009.0 |
| 20260506202206 | 48 | 332 | 3.0 | 7.0 | 0.00 | 0.37 | 0.32 | 97 | 1009.0 |
| 20260506201705 | 48 | 312 | 3.0 | 6.0 | 0.00 | 0.37 | 0.32 | 97 | 1008.9 |
| 20260506201205 | 48 | 306 | 3.0 | 5.0 | 0.00 | 0.37 | 0.32 | 97 | 1008.9 |
| 20260506200705 | 48 | 324 | 3.0 | 7.0 | 0.00 | 0.38 | 0.32 | 97 | 1008.7 |
| 20260506200205 | 48 | 337 | 2.0 | 7.0 | 0.00 | 0.38 | 0.32 | 97 | 1008.7 |
| 20260506195706 | 48 | 316 | 2.0 | 7.0 | 0.00 | 0.38 | 0.32 | 97 | 1008.7 |
| 20260506195205 | 48 | 317 | 2.0 | 5.0 | 0.00 | 0.38 | 0.32 | 97 | 1008.6 |
| 20260506194705 | 48 | 295 | 2.0 | 5.0 | 0.00 | 0.38 | 0.32 | 97 | 1008.7 |
| 20260506194205 | 48 | 326 | 2.0 | 5.0 | 0.00 | 0.39 | 0.32 | 97 | 1008.6 |
| 20260506193705 | 48 | 337 | 2.0 | 5.0 | 0.00 | 0.39 | 0.32 | 97 | 1008.5 |
| 20260506193209 | 48 | 331 | 2.0 | 5.0 | 0.00 | 0.39 | 0.32 | 97 | 1008.5 |
| 20260506192705 | 48 | 316 | 2.0 | 5.0 | 0.00 | 0.39 | 0.32 | 97 | 1008.5 |
| 20260506192206 | 48 | 309 | 2.0 | 5.0 | 0.00 | 0.39 | 0.32 | 97 | 1008.4 |
| 20260506191706 | 48 | 340 | 2.0 | 5.0 | 0.00 | 0.40 | 0.32 | 97 | 1008.3 |
| 20260506191206 | 48 | 316 | 2.0 | 5.0 | 0.00 | 0.40 | 0.32 | 97 | 1008.3 |
| 20260506190710 | 48 | 297 | 2.0 | 6.0 | 0.00 | 0.41 | 0.32 | 97 | 1008.3 |
| 20260506190205 | 48 | 341 | 2.0 | 6.0 | 0.00 | 0.42 | 0.32 | 97 | 1008.2 |
| 20260506184704 | 47 | 324 | 3.0 | 7.0 | 0.00 | 0.43 | 0.32 | 96 | 1008.1 |
| 20260506184205 | 47 | 318 | 3.0 | 7.0 | 0.00 | 0.43 | 0.32 | 96 | 1008.0 |
| 20260506183705 | 47 | 307 | 3.0 | 9.0 | 0.00 | 0.44 | 0.32 | 96 | 1008.0 |
| 20260506183207 | 47 | 327 | 4.0 | 9.0 | 0.00 | 0.44 | 0.32 | 96 | 1008.0 |
| 20260506182205 | 48 | 297 | 3.0 | 7.0 | 0.00 | 0.46 | 0.32 | 96 | 1007.9 |
| 20260506181707 | 48 | 323 | 3.0 | 7.0 | 0.00 | 0.46 | 0.32 | 96 | 1007.8 |
| 20260506180705 | 48 | 1 | 3.0 | 7.0 | 0.01 | 0.47 | 0.32 | 96 | 1007.7 |
| 20260506180205 | 48 | 304 | 3.0 | 7.0 | 0.01 | 0.47 | 0.32 | 96 | 1007.7 |
| 20260506175705 | 48 | 312 | 3.0 | 7.0 | 0.01 | 0.47 | 0.32 | 96 | 1007.6 |
| 20260506175206 | 48 | 303 | 3.0 | 7.0 | 0.01 | 0.47 | 0.32 | 96 | 1007.6 |
| 20260506174705 | 48 | 328 | 3.0 | 8.0 | 0.01 | 0.48 | 0.32 | 96 | 1007.5 |
| 20260506174206 | 48 | 309 | 4.0 | 8.0 | 0.01 | 0.48 | 0.32 | 96 | 1007.5 |
| 20260506173708 | 48 | 323 | 4.0 | 8.0 | 0.01 | 0.48 | 0.32 | 96 | 1007.4 |
| 20260506173205 | 48 | 347 | 4.0 | 10.0 | 0.01 | 0.48 | 0.32 | 95 | 1007.4 |
| 20260506172706 | 48 | 327 | 4.0 | 10.0 | 0.01 | 0.49 | 0.32 | 95 | 1007.4 |
| 20260506172205 | 48 | 304 | 4.0 | 10.0 | 0.01 | 0.49 | 0.32 | 95 | 1007.3 |
| 20260506171706 | 48 | 318 | 4.0 | 10.0 | 0.01 | 0.50 | 0.32 | 95 | 1007.3 |
| 20260506171206 | 48 | 311 | 3.0 | 8.0 | 0.00 | 0.49 | 0.31 | 95 | 1007.3 |
| 20260506170705 | 48 | 311 | 3.0 | 8.0 | 0.00 | 0.49 | 0.31 | 95 | 1007.3 |
| 20260506170205 | 48 | 310 | 3.0 | 8.0 | 0.00 | 0.49 | 0.31 | 95 | 1007.3 |
| 20260506165705 | 48 | 328 | 3.0 | 7.0 | 0.00 | 0.50 | 0.31 | 94 | 1007.3 |
| 20260506165206 | 48 | 316 | 3.0 | 7.0 | 0.00 | 0.50 | 0.31 | 94 | 1007.3 |
| 20260506164705 | 48 | 328 | 3.0 | 8.0 | 0.00 | 0.50 | 0.31 | 94 | 1007.2 |
| 20260506164205 | 48 | 326 | 4.0 | 8.0 | 0.00 | 0.50 | 0.31 | 94 | 1007.2 |
| 20260506163705 | 48 | 312 | 4.0 | 7.0 | 0.00 | 0.50 | 0.31 | 94 | 1007.1 |
| 20260506163210 | 48 | 319 | 3.0 | 7.0 | 0.00 | 0.50 | 0.31 | 94 | 1007.1 |
| 20260506162705 | 48 | 312 | 3.0 | 8.0 | 0.00 | 0.50 | 0.31 | 94 | 1007.1 |
| 20260506162228 | 48 | 346 | 4.0 | 8.0 | 0.00 | 0.50 | 0.31 | 94 | 1007.0 |
| 20260506161209 | 48 | 347 | 3.0 | 8.0 | 0.00 | 0.50 | 0.31 | 94 | 1007.0 |
| 20260506160724 | 49 | 323 | 3.0 | 6.0 | 0.00 | 0.50 | 0.31 | 94 | 1007.0 |
| 20260506160228 | 48 | 314 | 3.0 | 7.0 | 0.00 | 0.50 | 0.31 | 94 | 1007.0 |
| 20260506155705 | 48 | 306 | 3.0 | 8.0 | 0.00 | 0.50 | 0.31 | 94 | 1006.9 |
| 20260506155205 | 48 | 325 | 3.0 | 8.0 | 0.00 | 0.50 | 0.31 | 94 | 1006.9 |
| 20260506154708 | 48 | 319 | 4.0 | 8.0 | 0.00 | 0.50 | 0.31 | 94 | 1006.8 |
| 20260506153706 | 48 | 28 | 3.0 | 7.0 | 0.00 | 0.50 | 0.31 | 95 | 1006.9 |
| 20260506153205 | 48 | 323 | 3.0 | 8.0 | 0.00 | 0.50 | 0.31 | 95 | 1006.9 |
| 20260506152205 | 48 | 302 | 4.0 | 8.0 | 0.00 | 0.50 | 0.31 | 95 | 1006.8 |
| 20260506151705 | 48 | 335 | 4.0 | 10.0 | 0.00 | 0.50 | 0.31 | 95 | 1006.8 |
| 20260506150706 | 48 | 304 | 4.0 | 10.0 | 0.00 | 0.50 | 0.31 | 94 | 1006.8 |
| 20260506150206 | 48 | 319 | 3.0 | 9.0 | 0.00 | 0.50 | 0.31 | 95 | 1006.8 |
| 20260506145705 | 48 | 326 | 4.0 | 9.0 | 0.00 | 0.50 | 0.31 | 95 | 1006.7 |
| 20260506144705 | 48 | 319 | 4.0 | 9.0 | 0.00 | 0.50 | 0.31 | 95 | 1006.6 |
| 20260506144208 | 48 | 315 | 4.0 | 12.0 | 0.00 | 0.50 | 0.31 | 95 | 1006.6 |
| 20260506143706 | 48 | 342 | 4.0 | 12.0 | 0.00 | 0.50 | 0.31 | 95 | 1006.6 |
| 20260506143205 | 48 | 316 | 5.0 | 10.0 | 0.00 | 0.50 | 0.31 | 95 | 1006.6 |
| 20260506142706 | 48 | 311 | 4.0 | 9.0 | 0.00 | 0.50 | 0.31 | 95 | 1006.5 |
| 20260506140706 | 49 | 330 | 4.0 | 9.0 | 0.01 | 0.50 | 0.31 | 96 | 1006.4 |
| 20260506140205 | 48 | 317 | 5.0 | 9.0 | 0.01 | 0.50 | 0.31 | 96 | 1006.5 |
| 20260506135705 | 48 | 303 | 4.0 | 9.0 | 0.01 | 0.50 | 0.31 | 96 | 1006.5 |
| 20260506135205 | 48 | 344 | 4.0 | 8.0 | 0.02 | 0.50 | 0.31 | 96 | 1006.4 |
| 20260506134205 | 49 | 335 | 3.0 | 10.0 | 0.02 | 0.50 | 0.31 | 96 | 1006.5 |
| 20260506133707 | 49 | 314 | 4.0 | 10.0 | 0.02 | 0.50 | 0.31 | 96 | 1006.5 |
| 20260506133206 | 49 | 315 | 4.0 | 10.0 | 0.02 | 0.50 | 0.31 | 96 | 1006.4 |
| 20260506132205 | 49 | 295 | 3.0 | 11.0 | 0.03 | 0.50 | 0.31 | 96 | 1006.3 |
| 20260506131705 | 49 | 324 | 4.0 | 11.0 | 0.04 | 0.50 | 0.31 | 95 | 1006.3 |
| 20260506131208 | 49 | 322 | 4.0 | 9.0 | 0.05 | 0.50 | 0.31 | 95 | 1006.3 |
| 20260506130705 | 49 | 4 | 5.0 | 9.0 | 0.04 | 0.49 | 0.31 | 96 | 1006.2 |
| 20260506130206 | 49 | 321 | 4.0 | 11.0 | 0.05 | 0.49 | 0.31 | 96 | 1006.3 |
| 20260506125705 | 50 | 308 | 4.0 | 11.0 | 0.05 | 0.49 | 0.31 | 96 | 1006.2 |
| 20260506125205 | 50 | 293 | 4.0 | 11.0 | 0.05 | 0.48 | 0.30 | 96 | 1006.1 |
| 20260506124705 | 50 | 305 | 4.0 | 9.0 | 0.05 | 0.48 | 0.30 | 96 | 1006.0 |
| 20260506124205 | 50 | 343 | 4.0 | 9.0 | 0.06 | 0.48 | 0.30 | 96 | 1006.0 |
| 20260506123705 | 50 | 300 | 4.0 | 9.0 | 0.05 | 0.47 | 0.29 | 96 | 1005.9 |
| 20260506122705 | 50 | 326 | 4.0 | 8.0 | 0.05 | 0.47 | 0.28 | 96 | 1005.9 |
| 20260506122206 | 50 | 340 | 3.0 | 9.0 | 0.04 | 0.46 | 0.28 | 96 | 1005.8 |
| 20260506121205 | 50 | 321 | 4.0 | 9.0 | 0.04 | 0.46 | 0.27 | 96 | 1005.8 |
| 20260506120706 | 50 | 333 | 4.0 | 10.0 | 0.04 | 0.46 | 0.27 | 97 | 1005.8 |
| 20260506120205 | 50 | 308 | 4.0 | 10.0 | 0.03 | 0.46 | 0.26 | 96 | 1005.8 |
| 20260506115706 | 50 | 324 | 4.0 | 11.0 | 0.03 | 0.47 | 0.26 | 96 | 1005.8 |
| 20260506115205 | 50 | 318 | 4.0 | 11.0 | 0.03 | 0.46 | 0.25 | 96 | 1005.7 |
| 20260506114706 | 50 | 322 | 4.0 | 9.0 | 0.03 | 0.47 | 0.25 | 96 | 1005.7 |
| 20260506114206 | 50 | 317 | 3.0 | 8.0 | 0.02 | 0.46 | 0.24 | 96 | 1005.7 |
| 20260506113206 | 50 | 318 | 4.0 | 9.0 | 0.02 | 0.46 | 0.24 | 96 | 1005.6 |
| 20260506112705 | 50 | 354 | 4.0 | 9.0 | 0.02 | 0.46 | 0.24 | 96 | 1005.6 |
| 20260506112205 | 50 | 335 | 4.0 | 9.0 | 0.02 | 0.46 | 0.24 | 96 | 1005.6 |
| 20260506110705 | 50 | 309 | 5.0 | 9.0 | 0.02 | 0.46 | 0.23 | 97 | 1005.6 |
| 20260506110205 | 50 | 335 | 4.0 | 9.0 | 0.02 | 0.46 | 0.23 | 97 | 1005.5 |
| 20260506105706 | 50 | 345 | 4.0 | 12.0 | 0.03 | 0.46 | 0.23 | 97 | 1005.5 |
| 20260506105206 | 50 | 311 | 4.0 | 12.0 | 0.02 | 0.46 | 0.22 | 97 | 1005.5 |
| 20260506104705 | 50 | 351 | 4.0 | 12.0 | 0.02 | 0.46 | 0.22 | 97 | 1005.5 |
| 20260506104205 | 50 | 309 | 4.0 | 10.0 | 0.03 | 0.46 | 0.22 | 97 | 1005.4 |
| 20260506103704 | 50 | 325 | 4.0 | 12.0 | 0.02 | 0.45 | 0.21 | 97 | 1005.5 |
| 20260506103206 | 50 | 329 | 4.0 | 12.0 | 0.03 | 0.45 | 0.21 | 97 | 1005.4 |
| 20260506102706 | 50 | 330 | 4.0 | 12.0 | 0.03 | 0.45 | 0.21 | 97 | 1005.4 |
| 20260506102206 | 50 | 316 | 5.0 | 12.0 | 0.03 | 0.45 | 0.21 | 97 | 1005.4 |
| 20260506101705 | 49 | 314 | 5.0 | 12.0 | 0.03 | 0.44 | 0.20 | 97 | 1005.3 |
| 20260506101205 | 50 | 309 | 4.0 | 8.0 | 0.03 | 0.44 | 0.20 | 97 | 1005.4 |
| 20260506100705 | 50 | 327 | 3.0 | 8.0 | 0.03 | 0.44 | 0.20 | 97 | 1005.3 |
| 20260506100230 | 50 | 345 | 3.0 | 8.0 | 0.03 | 0.43 | 0.20 | 97 | 1005.2 |
| 20260506095706 | 49 | 0 | 3.0 | 8.0 | 0.03 | 0.43 | 0.20 | 97 | 1005.2 |
| 20260506095205 | 49 | 321 | 4.0 | 9.0 | 0.03 | 0.43 | 0.20 | 97 | 1005.2 |
| 20260506094705 | 49 | 325 | 4.0 | 9.0 | 0.02 | 0.43 | 0.19 | 97 | 1005.2 |
| 20260506094206 | 49 | 306 | 4.0 | 9.0 | 0.02 | 0.43 | 0.19 | 97 | 1005.2 |
| 20260506093705 | 49 | 346 | 4.0 | 8.0 | 0.02 | 0.43 | 0.19 | 97 | 1005.1 |
| 20260506093205 | 49 | 311 | 4.0 | 8.0 | 0.02 | 0.42 | 0.18 | 97 | 1005.1 |
| 20260506092705 | 49 | 349 | 3.0 | 9.0 | 0.02 | 0.42 | 0.18 | 97 | 1005.0 |
| 20260506092205 | 49 | 311 | 4.0 | 9.0 | 0.02 | 0.42 | 0.18 | 97 | 1005.0 |
| 20260506091205 | 49 | 312 | 4.0 | 9.0 | 0.02 | 0.41 | 0.17 | 97 | 1004.9 |
| 20260506090705 | 50 | 316 | 3.0 | 7.0 | 0.01 | 0.40 | 0.17 | 97 | 1004.9 |
| 20260506090206 | 50 | 330 | 2.0 | 6.0 | 0.01 | 0.40 | 0.17 | 97 | 1004.8 |
| 20260506084705 | 50 | 316 | 0.0 | 2.0 | 0.01 | 0.40 | 0.17 | 97 | 1004.8 |
| 20260506084206 | 50 | 322 | 0.0 | 2.0 | 0.01 | 0.40 | 0.17 | 97 | 1004.7 |